AAL707 KSEA-KDFW

Flight info

Callsign AAL707
Flight time 3h 16m
Altitude 37000
Route SUMMA2 SUMMA J54 BKE HLE KD60S KD45W PNH MDANO VKTRY2
Aircraft B38M/M-SDE1FGHILORVWXY/HB1

Departure

Time 2026-05-04 03:29
Airport Seattle–Tacoma International Airport (KSEA)

Arrival

Time 2026-05-04 06:46
Airport Dallas Fort Worth International Airport (KDFW)
Time Latitude Longitude Altitude Speed Heading
2026-05-04 03:09 47.44640 -122.30009 435 ft 0 kts 142°
2026-05-04 03:19 47.44649 -122.30019 435 ft 4 kts 145°
2026-05-04 03:19 47.44672 -122.30037 429 ft 4 kts 163°
2026-05-04 03:20 47.44697 -122.30040 422 ft 4 kts 200°
2026-05-04 03:20 47.44711 -122.30027 423 ft 0 kts 228°
2026-05-04 03:22 47.44710 -122.30028 423 ft 1 kts 228°
2026-05-04 03:23 47.44690 -122.30067 420 ft 10 kts 237°
2026-05-04 03:23 47.44672 -122.30181 435 ft 12 kts 272°
2026-05-04 03:23 47.44702 -122.30286 432 ft 7 kts 310°
2026-05-04 03:23 47.44740 -122.30351 431 ft 9 kts 304°
2026-05-04 03:24 47.44755 -122.30468 434 ft 15 kts 270°
2026-05-04 03:24 47.44749 -122.30605 429 ft 10 kts 238°
2026-05-04 03:24 47.44679 -122.30625 428 ft 12 kts 178°
2026-05-04 03:24 47.44571 -122.30625 422 ft 18 kts 180°
2026-05-04 03:25 47.44436 -122.30626 427 ft 20 kts 180°
2026-05-04 03:25 47.44301 -122.30627 424 ft 20 kts 180°
2026-05-04 03:25 47.44160 -122.30628 426 ft 21 kts 180°
2026-05-04 03:25 47.44031 -122.30629 428 ft 14 kts 180°
2026-05-04 03:26 47.43926 -122.30629 424 ft 17 kts 181°
2026-05-04 03:26 47.43791 -122.30630 429 ft 21 kts 181°
2026-05-04 03:26 47.43658 -122.30631 425 ft 17 kts 178°
2026-05-04 03:26 47.43557 -122.30567 428 ft 14 kts 153°
2026-05-04 03:27 47.43475 -122.30551 426 ft 12 kts 180°
2026-05-04 03:27 47.43368 -122.30551 426 ft 19 kts 179°
2026-05-04 03:27 47.43251 -122.30556 426 ft 15 kts 186°
2026-05-04 03:27 47.43174 -122.30609 431 ft 12 kts 229°
2026-05-04 03:28 47.43155 -122.30738 427 ft 13 kts 277°
2026-05-04 03:28 47.43203 -122.30803 426 ft 9 kts 353°
2026-05-04 03:28 47.43281 -122.30804 424 ft 21 kts
2026-05-04 03:28 47.43674 -122.30802 425 ft 91 kts
2026-05-04 03:29 47.44518 -122.30794 427 ft 149 kts 360°
2026-05-04 03:29 47.45689 -122.30756 638 ft 180 kts
2026-05-04 03:29 47.46971 -122.30673 1325 ft 187 kts
2026-05-04 03:29 47.48311 -122.30574 1949 ft 197 kts
2026-05-04 03:30 47.49699 -122.30610 2503 ft 211 kts 359°
2026-05-04 03:30 47.51249 -122.30694 2923 ft 235 kts 359°
2026-05-04 03:30 47.52861 -122.30776 3880 ft 235 kts 359°
2026-05-04 03:30 47.54566 -122.30855 4472 ft 253 kts 358°
2026-05-04 03:31 47.56365 -122.30937 5182 ft 263 kts 358°
2026-05-04 03:31 47.58182 -122.30663 6095 ft 266 kts 18°
2026-05-04 03:31 47.59751 -122.29232 6947 ft 272 kts 45°
2026-05-04 03:31 47.60750 -122.26832 7744 ft 281 kts 71°
2026-05-04 03:32 47.60914 -122.23944 8574 ft 288 kts 99°
2026-05-04 03:32 47.60095 -122.21200 9396 ft 294 kts 129°
2026-05-04 03:32 47.58469 -122.19367 10149 ft 299 kts 159°
2026-05-04 03:32 47.56418 -122.18843 10595 ft 314 kts 180°
2026-05-04 03:33 47.54150 -122.18590 10977 ft 331 kts 169°
2026-05-04 03:33 47.51881 -122.17936 11487 ft 342 kts 170°
2026-05-04 03:33 47.49525 -122.17328 12259 ft 344 kts 171°
2026-05-04 03:33 47.47143 -122.16768 12994 ft 349 kts 171°
2026-05-04 03:34 47.44726 -122.16217 13737 ft 353 kts 171°
2026-05-04 03:34 47.42285 -122.15675 14413 ft 357 kts 172°
2026-05-04 03:34 47.39813 -122.15139 15095 ft 360 kts 172°
2026-05-04 03:34 47.37321 -122.14603 15771 ft 364 kts 172°
2026-05-04 03:35 47.34804 -122.14064 16433 ft 368 kts 172°
2026-05-04 03:35 47.32261 -122.13523 17103 ft 371 kts 172°
2026-05-04 03:35 47.29690 -122.12976 17730 ft 375 kts 171°
2026-05-04 03:35 47.27093 -122.12423 18332 ft 379 kts 171°
2026-05-04 03:36 47.24471 -122.11869 18865 ft 382 kts 171°
2026-05-04 03:36 47.22723 -122.11499 19219 ft 384 kts 171°
2026-05-04 03:36 47.20060 -122.10938 19739 ft 388 kts 171°
2026-05-04 03:36 47.17374 -122.10370 20257 ft 392 kts 171°
2026-05-04 03:37 47.14668 -122.09800 20763 ft 395 kts 171°
2026-05-04 03:37 47.11937 -122.09226 21278 ft 398 kts 171°
2026-05-04 03:37 47.09190 -122.08648 21779 ft 402 kts 171°
2026-05-04 03:37 47.06409 -122.08065 22298 ft 405 kts 171°
2026-05-04 03:38 47.03612 -122.07481 22785 ft 408 kts 171°
2026-05-04 03:38 47.00786 -122.06889 23269 ft 412 kts 171°
2026-05-04 03:38 46.97942 -122.06296 23709 ft 415 kts 171°
2026-05-04 03:38 46.95070 -122.05696 24111 ft 418 kts 171°
2026-05-04 03:39 46.92187 -122.05099 24510 ft 420 kts 170°
2026-05-04 03:39 46.89280 -122.04495 24909 ft 423 kts 170°
2026-05-04 03:39 46.86367 -122.03892 25323 ft 425 kts 171°
2026-05-04 03:39 46.83427 -122.03284 25718 ft 428 kts 170°
2026-05-04 03:40 46.80469 -122.02672 26087 ft 431 kts 170°
2026-05-04 03:40 46.77496 -122.02059 26466 ft 433 kts 170°
2026-05-04 03:40 46.74500 -122.01443 26818 ft 436 kts 170°
2026-05-04 03:40 46.71493 -122.00825 27185 ft 438 kts 170°
2026-05-04 03:41 46.68463 -122.00203 27555 ft 441 kts 170°
2026-05-04 03:41 46.65460 -121.99331 27870 ft 441 kts 159°
2026-05-04 03:41 46.62740 -121.97365 28278 ft 435 kts 142°
2026-05-04 03:41 46.60516 -121.94438 28505 ft 434 kts 126°
2026-05-04 03:42 46.58816 -121.90835 28846 ft 432 kts 119°
2026-05-04 03:42 46.57239 -121.87097 29135 ft 435 kts 118°
2026-05-04 03:42 46.55692 -121.83312 29483 ft 436 kts 118°
2026-05-04 03:42 46.54154 -121.79498 29799 ft 439 kts 117°
2026-05-04 03:43 46.52619 -121.75653 30081 ft 441 kts 117°
2026-05-04 03:43 46.51083 -121.71792 30402 ft 442 kts 117°
2026-05-04 03:43 46.49542 -121.67917 30702 ft 444 kts 117°
2026-05-04 03:43 46.47999 -121.64045 30985 ft 446 kts 117°
2026-05-04 03:44 46.46441 -121.60146 31279 ft 447 kts 117°
2026-05-04 03:44 46.44898 -121.56289 31534 ft 449 kts 116°
2026-05-04 03:44 46.43328 -121.52367 31822 ft 450 kts 116°
2026-05-04 03:44 46.41733 -121.48388 32090 ft 452 kts 116°
2026-05-04 03:45 46.40151 -121.44448 32438 ft 452 kts 116°
2026-05-04 03:45 46.38593 -121.40576 32817 ft 450 kts 116°
2026-05-04 03:45 46.37014 -121.36658 33175 ft 450 kts 116°
2026-05-04 03:45 46.35442 -121.32759 33503 ft 450 kts 116°
2026-05-04 03:46 46.33865 -121.28853 33837 ft 449 kts 116°
2026-05-04 03:46 46.32291 -121.24961 34172 ft 447 kts 116°
2026-05-04 03:46 46.30719 -121.21078 34468 ft 447 kts 116°
2026-05-04 03:46 46.29150 -121.17211 34754 ft 446 kts 116°
2026-05-04 03:47 46.27580 -121.13345 35009 ft 445 kts 115°
2026-05-04 03:47 46.26011 -121.09487 35278 ft 445 kts 115°
2026-05-04 03:47 46.24443 -121.05637 35539 ft 444 kts 116°
2026-05-04 03:47 46.22878 -121.01804 35796 ft 444 kts 116°
2026-05-04 03:48 46.21312 -120.97967 36032 ft 443 kts 115°
2026-05-04 03:48 46.19745 -120.94140 36246 ft 443 kts 116°
2026-05-04 03:48 46.18174 -120.90300 36397 ft 445 kts 116°
2026-05-04 03:48 46.16601 -120.86463 36605 ft 444 kts 116°
2026-05-04 03:49 46.15027 -120.82632 36807 ft 444 kts 116°
2026-05-04 03:49 46.11871 -120.74964 36848 ft 443 kts 116°
2026-05-04 03:50 46.08733 -120.67362 36861 ft 443 kts 116°
2026-05-04 03:50 46.05582 -120.59745 36854 ft 443 kts 116°
2026-05-04 03:51 46.02426 -120.52140 36855 ft 443 kts 116°
2026-05-04 03:51 45.99262 -120.44537 36843 ft 443 kts 116°
2026-05-04 03:52 45.96101 -120.36963 36848 ft 443 kts 117°
2026-05-04 03:52 45.92928 -120.29378 36838 ft 443 kts 117°
2026-05-04 03:53 45.89768 -120.21846 36833 ft 443 kts 117°
2026-05-04 03:53 45.86583 -120.14273 36832 ft 443 kts 117°
2026-05-04 03:54 45.83399 -120.06729 36842 ft 443 kts 118°
2026-05-04 03:54 45.80203 -119.99168 36825 ft 444 kts 118°
2026-05-04 03:55 45.76997 -119.91604 36817 ft 444 kts 118°
2026-05-04 03:55 45.73785 -119.84045 36831 ft 444 kts 118°
2026-05-04 03:56 45.70572 -119.76519 36843 ft 444 kts 118°
2026-05-04 03:56 45.67350 -119.68982 36843 ft 444 kts 118°
2026-05-04 03:57 45.64126 -119.61459 36841 ft 444 kts 118°
2026-05-04 03:57 45.60899 -119.53948 36857 ft 444 kts 118°
2026-05-04 03:58 45.56051 -119.42705 36878 ft 443 kts 118°
2026-05-04 03:58 45.52815 -119.35224 36870 ft 443 kts 119°
2026-05-04 03:59 45.49579 -119.27764 36881 ft 443 kts 119°
2026-05-04 03:59 45.46334 -119.20302 36897 ft 443 kts 119°
2026-05-04 04:00 45.43113 -119.12916 36907 ft 443 kts 119°
2026-05-04 04:00 45.39863 -119.05482 36904 ft 442 kts 119°
2026-05-04 04:01 45.36610 -118.98060 36904 ft 442 kts 119°
2026-05-04 04:01 45.33351 -118.90645 36916 ft 442 kts 119°
2026-05-04 04:02 45.30096 -118.83257 36968 ft 442 kts 120°
2026-05-04 04:02 45.26827 -118.75858 36951 ft 442 kts 120°
2026-05-04 04:03 45.23551 -118.68464 36958 ft 443 kts 120°
2026-05-04 04:03 45.20272 -118.61077 36954 ft 443 kts 120°
2026-05-04 04:04 45.16985 -118.53693 36978 ft 443 kts 120°
2026-05-04 04:04 45.13691 -118.46316 36981 ft 443 kts 120°
2026-05-04 04:05 45.10396 -118.38954 36970 ft 443 kts 120°
2026-05-04 04:05 45.07117 -118.31647 36985 ft 443 kts 120°
2026-05-04 04:06 45.03811 -118.24301 36975 ft 443 kts 120°
2026-05-04 04:06 45.00496 -118.16951 36967 ft 444 kts 120°
2026-05-04 04:07 44.97171 -118.09598 36949 ft 444 kts 120°
2026-05-04 04:07 44.93842 -118.02255 36943 ft 444 kts 120°
2026-05-04 04:08 44.90507 -117.94914 36944 ft 444 kts 120°
2026-05-04 04:08 44.87165 -117.87574 36947 ft 446 kts 120°
2026-05-04 04:09 44.83873 -117.80177 36939 ft 444 kts 116°
2026-05-04 04:09 44.80885 -117.72546 36939 ft 445 kts 117°
2026-05-04 04:10 44.77859 -117.64963 36941 ft 445 kts 117°
2026-05-04 04:10 44.74817 -117.57376 36936 ft 446 kts 117°
2026-05-04 04:11 44.71763 -117.49780 36921 ft 447 kts 117°
2026-05-04 04:11 44.68700 -117.42183 36906 ft 447 kts 117°
2026-05-04 04:12 44.65627 -117.34582 36894 ft 447 kts 117°
2026-05-04 04:12 44.62551 -117.26988 36903 ft 448 kts 117°
2026-05-04 04:13 44.59459 -117.19385 36887 ft 449 kts 117°
2026-05-04 04:13 44.56362 -117.11787 36882 ft 448 kts 118°
2026-05-04 04:14 44.53283 -117.04247 36875 ft 448 kts 117°
2026-05-04 04:14 44.50176 -116.96666 36875 ft 448 kts 118°
2026-05-04 04:15 44.47070 -116.89106 36869 ft 448 kts 118°
2026-05-04 04:15 44.43955 -116.81544 36859 ft 448 kts 118°
2026-05-04 04:16 44.40839 -116.73999 36859 ft 448 kts 118°
2026-05-04 04:16 44.37716 -116.66456 36853 ft 448 kts 118°
2026-05-04 04:17 44.34585 -116.58914 36852 ft 449 kts 118°
2026-05-04 04:17 44.31447 -116.51380 36844 ft 448 kts 118°
2026-05-04 04:18 44.28307 -116.43855 36843 ft 449 kts 118°
2026-05-04 04:18 44.25158 -116.36333 36850 ft 449 kts 118°
2026-05-04 04:19 44.22002 -116.28815 36844 ft 450 kts 118°
2026-05-04 04:19 44.18846 -116.21307 36831 ft 449 kts 118°
2026-05-04 04:20 44.15687 -116.13822 36835 ft 449 kts 118°
2026-05-04 04:20 44.12540 -116.06380 36828 ft 449 kts 118°
2026-05-04 04:21 44.09361 -115.98883 36839 ft 450 kts 119°
2026-05-04 04:21 44.06179 -115.91399 36821 ft 449 kts 119°
2026-05-04 04:22 44.02999 -115.83939 36830 ft 449 kts 119°
2026-05-04 04:22 43.99810 -115.76477 36819 ft 449 kts 119°
2026-05-04 04:23 43.96617 -115.69026 36825 ft 449 kts 120°
2026-05-04 04:23 43.93426 -115.61597 36822 ft 448 kts 120°
2026-05-04 04:24 43.90236 -115.54189 36815 ft 448 kts 120°
2026-05-04 04:24 43.87035 -115.46777 36823 ft 448 kts 120°
2026-05-04 04:25 43.83829 -115.39371 36814 ft 448 kts 120°
2026-05-04 04:25 43.80614 -115.31965 36834 ft 449 kts 120°
2026-05-04 04:26 43.77941 -115.25819 36835 ft 449 kts 120°
2026-05-04 04:26 43.74189 -115.17218 36837 ft 449 kts 120°
2026-05-04 04:27 43.70954 -115.09823 36846 ft 449 kts 120°
2026-05-04 04:27 43.67720 -115.02446 36839 ft 449 kts 120°
2026-05-04 04:28 43.65026 -114.96316 36845 ft 449 kts 120°
2026-05-04 04:28 43.61782 -114.88952 36851 ft 449 kts 120°
2026-05-04 04:29 43.58532 -114.81593 36849 ft 449 kts 120°
2026-05-04 04:29 43.55268 -114.74221 36842 ft 451 kts 121°
2026-05-04 04:30 43.51998 -114.66853 36845 ft 450 kts 121°
2026-05-04 04:30 43.48726 -114.59501 36841 ft 450 kts 121°
2026-05-04 04:31 43.45449 -114.52151 36834 ft 450 kts 121°
2026-05-04 04:31 43.42162 -114.44795 36837 ft 452 kts 121°
2026-05-04 04:32 43.38863 -114.37434 36956 ft 452 kts 121°
2026-05-04 04:32 43.35563 -114.30085 36946 ft 452 kts 121°
2026-05-04 04:33 43.32192 -114.22803 36924 ft 452 kts 123°
2026-05-04 04:33 43.28702 -114.15590 36891 ft 454 kts 123°
2026-05-04 04:34 43.25220 -114.08366 36843 ft 454 kts 123°
2026-05-04 04:34 43.21734 -114.01150 36803 ft 454 kts 123°
2026-05-04 04:35 43.18243 -113.93943 36789 ft 454 kts 123°
2026-05-04 04:35 43.14737 -113.86718 36788 ft 456 kts 123°
2026-05-04 04:36 43.11220 -113.79490 36785 ft 456 kts 124°
2026-05-04 04:36 43.07700 -113.72272 36788 ft 456 kts 124°
2026-05-04 04:37 43.00654 -113.57880 36787 ft 458 kts 124°
2026-05-04 04:38 42.97108 -113.50663 36790 ft 458 kts 124°
2026-05-04 04:38 42.93555 -113.43448 36791 ft 458 kts 124°
2026-05-04 04:39 42.89996 -113.36241 36793 ft 458 kts 124°
2026-05-04 04:39 42.86426 -113.29028 36805 ft 459 kts 124°
2026-05-04 04:40 42.82847 -113.21812 36800 ft 460 kts 124°
2026-05-04 04:40 42.79264 -113.14607 36810 ft 460 kts 124°
2026-05-04 04:41 42.75674 -113.07408 36813 ft 459 kts 125°
2026-05-04 04:41 42.72084 -113.00222 36813 ft 459 kts 125°
2026-05-04 04:42 42.68485 -112.93039 36814 ft 460 kts 125°
2026-05-04 04:42 42.64883 -112.85866 36811 ft 460 kts 125°
2026-05-04 04:43 42.61300 -112.78748 36810 ft 459 kts 126°
2026-05-04 04:43 42.57690 -112.71592 36806 ft 460 kts 126°
2026-05-04 04:44 42.54068 -112.64432 36806 ft 460 kts 126°
2026-05-04 04:44 42.50443 -112.57281 36810 ft 460 kts 126°
2026-05-04 04:45 42.46813 -112.50137 36816 ft 460 kts 126°
2026-05-04 04:47 42.34051 -112.25160 36812 ft 461 kts 126°
2026-05-04 04:47 42.30394 -112.18040 36831 ft 461 kts 126°
2026-05-04 04:48 42.26727 -112.10919 36823 ft 462 kts 126°
2026-05-04 04:49 42.17566 -111.93196 36842 ft 462 kts 127°
2026-05-04 04:49 42.13884 -111.86104 36851 ft 462 kts 127°
2026-05-04 04:50 42.10195 -111.79014 36865 ft 462 kts 127°
2026-05-04 04:50 42.06501 -111.71933 36868 ft 463 kts 127°
2026-05-04 04:51 42.02799 -111.64851 36867 ft 462 kts 127°
2026-05-04 04:51 41.99094 -111.57782 36867 ft 463 kts 127°
2026-05-04 04:52 41.95381 -111.50711 36842 ft 463 kts 127°
2026-05-04 04:52 41.91676 -111.43673 36841 ft 461 kts 128°
2026-05-04 04:53 41.87965 -111.36641 36851 ft 461 kts 128°
2026-05-04 04:53 41.84255 -111.29625 36852 ft 461 kts 128°
2026-05-04 04:54 41.80541 -111.22621 36845 ft 461 kts 128°
2026-05-04 04:54 41.76825 -111.15627 36853 ft 461 kts 128°
2026-05-04 04:55 41.73101 -111.08636 36855 ft 462 kts 128°
2026-05-04 04:55 41.69362 -111.01630 36853 ft 462 kts 128°
2026-05-04 04:56 41.65619 -110.94634 36857 ft 462 kts 128°
2026-05-04 04:56 41.61896 -110.87693 36855 ft 462 kts 128°
2026-05-04 04:57 41.58147 -110.80716 36855 ft 462 kts 128°
2026-05-04 04:57 41.54385 -110.73733 36859 ft 464 kts 128°
2026-05-04 04:58 41.50610 -110.66742 36851 ft 464 kts 128°
2026-05-04 04:58 41.46834 -110.59764 37025 ft 464 kts 128°
2026-05-04 04:59 41.43053 -110.52794 37073 ft 464 kts 128°
2026-05-04 04:59 41.39271 -110.45837 37087 ft 464 kts 128°
2026-05-04 05:00 41.35474 -110.38870 37077 ft 466 kts 129°
2026-05-04 05:01 41.29759 -110.28411 37049 ft 465 kts 129°
2026-05-04 05:01 41.25948 -110.21457 36997 ft 466 kts 129°
2026-05-04 05:02 41.22130 -110.14506 36940 ft 466 kts 129°
2026-05-04 05:02 41.18304 -110.07556 36894 ft 467 kts 129°
2026-05-04 05:03 41.14469 -110.00605 36856 ft 467 kts 129°
2026-05-04 05:04 41.06813 -109.86775 36849 ft 467 kts 129°
2026-05-04 05:04 41.02965 -109.79846 36845 ft 467 kts 129°
2026-05-04 05:06 40.87470 -109.52109 36836 ft 470 kts 130°
2026-05-04 05:07 40.83576 -109.45176 36842 ft 470 kts 130°
2026-05-04 05:07 40.79673 -109.38243 36831 ft 471 kts 130°
2026-05-04 05:09 40.62005 -109.07052 36829 ft 474 kts 130°
2026-05-04 05:10 40.58045 -109.00107 36812 ft 475 kts 131°
2026-05-04 05:10 40.54069 -108.93151 36843 ft 476 kts 130°
2026-05-04 05:11 40.50090 -108.86196 36821 ft 477 kts 131°
2026-05-04 05:11 40.46100 -108.79242 36820 ft 477 kts 131°
2026-05-04 05:12 40.42101 -108.72288 36812 ft 478 kts 131°
2026-05-04 05:12 40.38078 -108.65309 36819 ft 480 kts 131°
2026-05-04 05:13 40.34053 -108.58340 36820 ft 480 kts 131°
2026-05-04 05:13 40.30018 -108.51366 36828 ft 480 kts 131°
2026-05-04 05:14 40.25980 -108.44401 36812 ft 480 kts 132°
2026-05-04 05:14 40.21914 -108.37404 36826 ft 485 kts 132°
2026-05-04 05:15 40.17832 -108.30394 36844 ft 485 kts 132°
2026-05-04 05:15 40.13737 -108.23378 36841 ft 485 kts 132°
2026-05-04 05:16 40.09641 -108.16376 36825 ft 486 kts 132°
2026-05-04 05:16 40.07585 -108.12867 36973 ft 488 kts 132°
2026-05-04 05:16 40.05526 -108.09357 36991 ft 488 kts 132°
2026-05-04 05:17 40.01398 -108.02331 37020 ft 488 kts 133°
2026-05-04 05:17 39.97956 -107.96502 37035 ft 488 kts 133°
2026-05-04 05:18 39.93824 -107.89479 37004 ft 488 kts 133°
2026-05-04 05:18 39.89671 -107.82433 36992 ft 493 kts 133°
2026-05-04 05:19 39.87579 -107.78888 36885 ft 493 kts 133°
2026-05-04 05:19 39.85491 -107.75355 36899 ft 493 kts 133°
2026-05-04 05:19 39.81314 -107.68297 36889 ft 491 kts 133°
2026-05-04 05:20 39.77134 -107.61250 36905 ft 493 kts 133°
2026-05-04 05:20 39.72928 -107.54175 36934 ft 498 kts 133°
2026-05-04 05:21 39.68712 -107.47100 36935 ft 498 kts 133°
2026-05-04 05:21 39.64468 -107.39994 36922 ft 497 kts 133°
2026-05-04 05:22 39.60220 -107.32898 36904 ft 499 kts 133°
2026-05-04 05:22 39.55944 -107.25770 36944 ft 504 kts 133°
2026-05-04 05:23 39.51623 -107.18582 36968 ft 505 kts 133°
2026-05-04 05:23 39.47306 -107.11419 36978 ft 504 kts 134°
2026-05-04 05:24 39.42989 -107.04271 36993 ft 505 kts 133°
2026-05-04 05:24 39.38664 -106.97126 36899 ft 503 kts 133°
2026-05-04 05:25 39.34349 -106.90014 36936 ft 504 kts 133°
2026-05-04 05:25 39.32179 -106.86443 37128 ft 505 kts 133°
2026-05-04 05:25 39.30013 -106.82883 37115 ft 504 kts 134°
2026-05-04 05:26 39.25718 -106.75835 37103 ft 504 kts 134°
2026-05-04 05:26 39.21373 -106.68721 37080 ft 508 kts 134°
2026-05-04 05:28 39.03763 -106.40053 37124 ft 514 kts 134°
2026-05-04 05:29 38.99312 -106.32844 37080 ft 514 kts 134°
2026-05-04 05:29 38.94892 -106.25705 37065 ft 509 kts 134°
2026-05-04 05:31 38.79226 -106.00527 37150 ft 520 kts 134°
2026-05-04 05:31 38.76963 -105.96905 37124 ft 520 kts 134°
2026-05-04 05:32 38.74700 -105.93289 36913 ft 520 kts 134°
2026-05-04 05:32 38.72438 -105.89679 36911 ft 520 kts 134°
2026-05-04 05:33 38.65646 -105.78861 36925 ft 524 kts 134°
2026-05-04 05:33 38.61070 -105.71592 36918 ft 525 kts 135°
2026-05-04 05:34 38.56489 -105.64333 36910 ft 524 kts 135°
2026-05-04 05:34 38.51903 -105.57081 36875 ft 526 kts 135°
2026-05-04 05:35 38.47285 -105.49796 36918 ft 532 kts 135°
2026-05-04 05:35 38.42626 -105.42462 36923 ft 532 kts 135°
2026-05-04 05:36 38.37970 -105.35149 36882 ft 531 kts 135°
2026-05-04 05:36 38.33304 -105.27838 36868 ft 532 kts 135°
2026-05-04 05:37 38.28636 -105.20539 36907 ft 531 kts 135°
2026-05-04 05:37 38.23948 -105.13226 36882 ft 533 kts 135°
2026-05-04 05:38 38.16942 -105.02329 36843 ft 533 kts 135°
2026-05-04 05:38 38.12242 -104.95039 36817 ft 535 kts 135°
2026-05-04 05:39 38.05143 -104.84057 36799 ft 535 kts 135°
2026-05-04 05:40 37.98044 -104.73115 36812 ft 536 kts 135°
2026-05-04 05:40 37.93301 -104.65823 36800 ft 537 kts 135°
2026-05-04 05:41 37.88530 -104.58505 36793 ft 539 kts 135°
2026-05-04 05:41 37.83760 -104.51205 36793 ft 539 kts 135°
2026-05-04 05:42 37.78982 -104.43909 36772 ft 539 kts 135°
2026-05-04 05:42 37.74198 -104.36620 36750 ft 540 kts 135°
2026-05-04 05:43 37.69387 -104.29302 36758 ft 543 kts 135°
2026-05-04 05:45 37.50091 -104.00202 36743 ft 536 kts 141°
2026-05-04 05:47 37.27601 -103.76428 36763 ft 529 kts 148°
2026-05-04 05:47 37.21944 -103.70504 36768 ft 529 kts 148°
2026-05-04 05:48 37.16293 -103.64599 36774 ft 530 kts 148°
2026-05-04 05:48 37.10625 -103.58689 36786 ft 531 kts 148°
2026-05-04 05:49 37.04938 -103.52770 36771 ft 531 kts 148°
2026-05-04 05:49 36.99259 -103.46870 36785 ft 530 kts 148°
2026-05-04 05:51 36.76521 -103.23371 36797 ft 531 kts 148°
2026-05-04 05:52 36.70831 -103.17520 36774 ft 529 kts 148°
2026-05-04 05:52 36.65192 -103.11732 36797 ft 528 kts 148°
2026-05-04 05:54 36.42480 -102.88537 36802 ft 527 kts 148°
2026-05-04 05:55 36.36810 -102.82774 36806 ft 527 kts 148°
2026-05-04 05:55 36.31133 -102.77016 36832 ft 527 kts 148°
2026-05-04 05:56 36.25449 -102.71261 36857 ft 527 kts 148°
2026-05-04 05:56 36.19806 -102.65560 36889 ft 527 kts 148°
2026-05-04 05:57 36.14123 -102.59829 36925 ft 527 kts 148°
2026-05-04 05:57 36.08432 -102.54102 36919 ft 527 kts 148°
2026-05-04 05:58 36.02757 -102.48400 36942 ft 524 kts 148°
2026-05-04 05:58 35.97096 -102.42724 36931 ft 524 kts 148°
2026-05-04 05:59 35.91428 -102.37051 36906 ft 526 kts 148°
2026-05-04 05:59 35.85735 -102.31365 36796 ft 527 kts 148°
2026-05-04 06:00 35.80066 -102.25713 36842 ft 524 kts 148°
2026-05-04 06:00 35.74403 -102.20078 36839 ft 523 kts 148°
2026-05-04 06:01 35.68734 -102.14448 36896 ft 523 kts 148°
2026-05-04 06:03 35.46115 -101.92087 36877 ft 523 kts 148°
2026-05-04 06:05 35.21731 -101.65537 37003 ft 538 kts 118°
2026-05-04 06:06 35.18303 -101.57354 36938 ft 541 kts 119°
2026-05-04 06:06 35.14893 -101.49174 36871 ft 539 kts 119°
2026-05-04 06:07 35.11510 -101.41070 36871 ft 539 kts 119°
2026-05-04 06:07 35.08097 -101.32912 36872 ft 539 kts 119°
2026-05-04 06:08 35.04682 -101.24766 36875 ft 540 kts 119°
2026-05-04 06:08 35.01262 -101.16630 36874 ft 540 kts 119°
2026-05-04 06:09 34.97831 -101.08486 36848 ft 539 kts 119°
2026-05-04 06:11 34.84100 -100.76097 36872 ft 538 kts 119°
2026-05-04 06:13 34.70881 -100.45205 36879 ft 536 kts 120°
2026-05-04 06:14 34.58789 -100.17192 36895 ft 536 kts 120°
2026-05-04 06:15 34.55326 -100.09212 36877 ft 534 kts 120°
2026-05-04 06:15 34.51863 -100.01247 36898 ft 533 kts 120°
2026-05-04 06:16 34.48398 -99.93299 36896 ft 533 kts 120°
2026-05-04 06:16 34.44929 -99.85360 36897 ft 533 kts 120°
2026-05-04 06:17 34.41454 -99.77426 36890 ft 533 kts 120°
2026-05-04 06:17 34.37979 -99.69505 36894 ft 533 kts 120°
2026-05-04 06:18 34.34497 -99.61585 36869 ft 533 kts 120°
2026-05-04 06:20 34.19822 -99.30571 36909 ft 532 kts 122°
2026-05-04 06:21 34.10575 -99.11230 36920 ft 533 kts 122°
2026-05-04 06:22 34.06854 -99.03476 36906 ft 534 kts 122°
2026-05-04 06:22 34.04995 -98.99609 36687 ft 531 kts 122°
2026-05-04 06:25 33.80945 -98.50117 29119 ft 523 kts 121°
2026-05-04 06:25 33.79102 -98.46341 28256 ft 524 kts 122°
2026-05-04 06:26 33.77258 -98.42566 27376 ft 524 kts 122°
2026-05-04 06:26 33.75411 -98.38791 26581 ft 523 kts 122°
2026-05-04 06:26 33.73570 -98.35031 25818 ft 521 kts 122°
2026-05-04 06:26 33.71736 -98.31289 25113 ft 518 kts 122°
2026-05-04 06:27 33.64537 -98.16637 22120 ft 492 kts 122°
2026-05-04 06:28 33.62816 -98.13166 21361 ft 476 kts 122°
2026-05-04 06:28 33.61145 -98.09801 20602 ft 463 kts 122°
2026-05-04 06:28 33.59515 -98.06521 19852 ft 452 kts 123°
2026-05-04 06:28 33.57942 -98.03358 19133 ft 443 kts 123°
2026-05-04 06:29 33.56379 -98.00216 18411 ft 435 kts 123°
2026-05-04 06:29 33.54847 -97.97141 17615 ft 428 kts 123°
2026-05-04 06:29 33.53336 -97.94109 16832 ft 420 kts 123°
2026-05-04 06:29 33.51849 -97.91130 16061 ft 412 kts 123°
2026-05-04 06:30 33.50394 -97.88205 15313 ft 405 kts 123°
2026-05-04 06:30 33.48968 -97.85343 14748 ft 395 kts 123°
2026-05-04 06:30 33.47576 -97.82549 14154 ft 386 kts 123°
2026-05-04 06:30 33.46219 -97.79828 13611 ft 375 kts 123°
2026-05-04 06:31 33.44896 -97.77178 13028 ft 366 kts 123°
2026-05-04 06:31 33.43608 -97.74598 12478 ft 356 kts 123°
2026-05-04 06:31 33.42357 -97.72096 11974 ft 347 kts 123°
2026-05-04 06:31 33.41132 -97.69648 11518 ft 338 kts 124°
2026-05-04 06:32 33.39942 -97.67272 11124 ft 328 kts 124°
2026-05-04 06:33 33.31409 -97.52866 9039 ft 292 kts 129°
2026-05-04 06:34 33.30211 -97.50904 8723 ft 291 kts 129°
2026-05-04 06:34 33.29020 -97.48956 8406 ft 290 kts 129°
2026-05-04 06:34 33.27850 -97.46996 8099 ft 290 kts 124°
2026-05-04 06:34 33.27190 -97.44720 7771 ft 294 kts 99°
2026-05-04 06:35 33.27035 -97.42289 7521 ft 293 kts 96°
2026-05-04 06:36 33.26149 -97.25878 6017 ft 270 kts 96°
2026-05-04 06:37 33.25993 -97.23650 5993 ft 268 kts 104°
2026-05-04 06:37 33.25450 -97.21540 6007 ft 266 kts 114°
2026-05-04 06:37 33.24831 -97.19449 6007 ft 267 kts 113°
2026-05-04 06:37 33.24217 -97.17360 6007 ft 267 kts 113°
2026-05-04 06:38 33.23602 -97.15269 5998 ft 267 kts 113°
2026-05-04 06:38 33.22987 -97.13180 5999 ft 266 kts 113°
2026-05-04 06:40 33.16024 -97.02432 5615 ft 234 kts 184°
2026-05-04 06:40 33.14396 -97.02459 5287 ft 234 kts 185°
2026-05-04 06:40 33.12788 -97.02478 4930 ft 234 kts 185°
2026-05-04 06:40 33.11163 -97.02489 4559 ft 230 kts 184°
2026-05-04 06:41 33.09618 -97.02498 4223 ft 216 kts 184°
2026-05-04 06:41 33.08156 -97.02506 3886 ft 204 kts 185°
2026-05-04 06:41 33.06777 -97.02513 3590 ft 193 kts 185°
2026-05-04 06:41 33.05488 -97.02521 3323 ft 177 kts 185°
2026-05-04 06:42 33.04295 -97.02528 3078 ft 166 kts 184°
2026-05-04 06:42 33.03180 -97.02533 2858 ft 157 kts 184°
2026-05-04 06:42 33.02094 -97.02539 2656 ft 155 kts 185°
2026-05-04 06:44 32.95684 -97.02592 1412 ft 125 kts 183°
2026-05-04 06:44 32.94794 -97.02585 1287 ft 131 kts 180°
2026-05-04 06:44 32.93870 -97.02596 1123 ft 135 kts 179°
2026-05-04 06:45 32.92930 -97.02596 926 ft 136 kts 180°
2026-05-04 06:45 32.91980 -97.02599 734 ft 136 kts 180°
2026-05-04 06:45 32.91049 -97.02602 624 ft 126 kts 181°
2026-05-04 06:45 32.90371 -97.02606 622 ft 64 kts 180°
2026-05-04 06:46 32.90067 -97.02619 625 ft 25 kts 191°
2026-05-04 06:46 32.89987 -97.02647 624 ft 9 kts 204°
2026-05-04 06:46 32.89912 -97.02694 621 ft 14 kts 210°
2026-05-04 06:46 32.89831 -97.02750 624 ft 14 kts 208°
2026-05-04 06:48 32.89395 -97.03131 618 ft 8 kts 270°
2026-05-04 06:48 32.89395 -97.03204 618 ft 9 kts 270°
2026-05-04 06:49 32.89397 -97.03275 618 ft 5 kts 278°
2026-05-04 06:50 32.89677 -97.03496 624 ft 2 kts 287°
2026-05-04 06:51 32.89680 -97.03507 621 ft 0 kts 287°